TimePST,TemperatureF,Dew PointF,Humidity,Sea Level PressureIn,VisibilityMPH,Wind Direction,Wind SpeedMPH,Gust SpeedMPH,PrecipitationIn,Events,Conditions,WindDirDegrees,DateUTC
12:53 AM,44.1,17.1,34,30.17,10.0,NW,3.5,-,N/A,,Clear,320,2013-01-06 08:53:00
1:53 AM,46.0,18.0,33,30.15,10.0,NNW,3.5,-,N/A,,Clear,340,2013-01-06 09:53:00
2:53 AM,45.0,17.1,33,30.13,10.0,NW,9.2,-,N/A,,Clear,320,2013-01-06 10:53:00
3:53 AM,43.0,19.9,40,30.12,10.0,WNW,3.5,-,N/A,,Clear,300,2013-01-06 11:53:00
4:53 AM,39.9,25.0,55,30.11,10.0,WSW,3.5,-,N/A,,Clear,240,2013-01-06 12:53:00
5:53 AM,41.0,17.1,38,30.11,10.0,NW,3.5,-,N/A,,Clear,320,2013-01-06 13:53:00
6:53 AM,39.9,19.9,45,30.12,10.0,Calm,Calm,-,N/A,,Scattered Clouds,0,2013-01-06 14:53:00
7:53 AM,43.0,17.1,35,30.12,10.0,Calm,Calm,-,N/A,,Scattered Clouds,0,2013-01-06 15:53:00
8:53 AM,51.1,15.1,24,30.13,10.0,Calm,Calm,-,N/A,,Scattered Clouds,0,2013-01-06 16:53:00
9:53 AM,55.0,19.0,24,30.12,10.0,Calm,Calm,-,N/A,,Clear,0,2013-01-06 17:53:00
10:53 AM,59.0,12.0,16,30.09,10.0,SE,3.5,-,N/A,,Clear,130,2013-01-06 18:53:00
11:53 AM,60.1,16.0,18,30.06,10.0,SE,4.6,-,N/A,,Scattered Clouds,130,2013-01-06 19:53:00
12:53 PM,61.0,19.9,21,30.02,10.0,Calm,Calm,-,N/A,,Scattered Clouds,0,2013-01-06 20:53:00
1:53 PM,62.1,21.9,21,30.00,10.0,East,4.6,-,N/A,,Scattered Clouds,90,2013-01-06 21:53:00
2:53 PM,62.1,28.0,28,29.99,10.0,NW,10.4,-,N/A,,Scattered Clouds,310,2013-01-06 22:53:00
3:53 PM,60.1,30.0,32,29.99,10.0,NNW,10.4,18.4,N/A,,Clear,330,2013-01-06 23:53:00
4:53 PM,57.9,30.0,35,29.99,10.0,NW,11.5,21.9,N/A,,Clear,310,2013-01-07 00:53:00
5:53 PM,57.0,33.1,40,29.99,10.0,NW,9.2,21.9,N/A,,Clear,320,2013-01-07 01:53:00
6:53 PM,57.0,32.0,39,29.98,10.0,Variable,3.5,-,N/A,,Partly Cloudy,0,2013-01-07 02:53:00
7:53 PM,54.0,36.0,51,29.98,10.0,WNW,5.8,-,N/A,,Scattered Clouds,300,2013-01-07 03:53:00
8:53 PM,51.1,36.0,56,29.98,10.0,WSW,3.5,-,N/A,,Mostly Cloudy,250,2013-01-07 04:53:00
9:53 PM,50.0,37.0,61,29.99,10.0,SE,3.5,-,N/A,,Scattered Clouds,130,2013-01-07 05:53:00
10:53 PM,50.0,37.0,61,29.98,10.0,Calm,Calm,-,N/A,,Overcast,0,2013-01-07 06:53:00
11:53 PM,51.1,37.0,59,29.98,10.0,NW,8.1,-,N/A,,Overcast,310,2013-01-07 07:53:00